[Date Prev][Date Next][Thread Prev][Thread Next] - [Date Index][Thread Index][Author Index]

2 Line ISS Keps 3-14



ISS
1 25544U 98067A   02073.22601679  .00084158  00000-0  11207-2 0  1817
2 25544  51.6371 169.9794 0004535 269.0479 193.2163 15.57407845189227


----
Via the sarex mailing list at AMSAT.ORG courtesy of AMSAT-NA.
To unsubscribe, send "unsubscribe sarex" to Majordomo@amsat.org



AMSAT Top AMSAT Home